Flag Weather past 2 weeks in Fairbanks, Alaska, U.S.A.

Now
-1 °F

Clear.


Feels Like: -13 °F
Forecast: -1 / 4 °F
Wind: 6 mph from Northeast

Location: Wainwright U. S. Army Airfield

Current Time: Nov 22, 2014 at 10:41:57 PM

Latest Report: Nov 22, 2014 at 9:56 PM


Visibility: 10 mi

Pressure: 29.51 "Hg

Humidity: 62%

Dew point: -11 °F

Location of FairbanksLocation

Historic Weather in Fairbanks — Graph

°F

Fairbanks temperature yesterday

Maximum temperature yesterday: 21 °F (at 1:55 PM)
Minimum temperature yesterday: 0 °F (at 5:56 AM)
Average temperature yesterday: 11 °F

Past Weeks' High & Low Weather Summary

 TemperatureHumidityPressure
High38 °F (Nov 10, 3:56 AM)93% (Nov 13, 4:55 PM)30.31 "Hg (Nov 13, 4:55 PM)
Low-3 °F (Nov 16, 7:56 AM)41% (Nov 22, 1:56 PM)29.27 "Hg (Nov 21, 4:55 PM)
Average12 °F79%29.86 "Hg
* Reported Nov 7 9:56 PM — Nov 22 8:56 PM, Fairbanks, Weather by CustomWeather, © 2014

Note: Actual official high and low records may vary slightly from our data, if they occured in-between our weather recording intervals... More about our weather records

Advertising

Fairbanks weather history for previous 24 hours

 ConditionsComfort  
Time TempWeatherWind HumidityBarometerVisibility
8:56 PM
Nov 22
-2 °FClear.5 mph62%29.51 "Hg10 mi
7:56 PM1 °FClear.3 mph56%29.49 "Hg10 mi
6:56 PM1 °FClear.3 mph56%29.49 "Hg10 mi
5:56 PM2 °FClear.3 mphN/A29.48 "Hg10 mi
4:56 PM-1 °FClear.No wind59%29.48 "Hg10 mi
3:56 PM6 °FClear.5 mphN/A29.46 "Hg10 mi
2:56 PM8 °FSunny.3 mphN/A29.45 "Hg10 mi
1:56 PM10 °FSunny.5 mph41%29.45 "Hg10 mi
12:56 PM9 °FSunny.6 mph45%29.44 "Hg10 mi
11:56 AM7 °FSunny.5 mph47%29.43 "Hg10 mi
10:56 AM6 °FSunny.5 mphN/A29.42 "Hg10 mi
9:56 AM6 °FSunny.7 mphN/A29.41 "Hg10 mi
8:56 AM6 °FClear.8 mph49%29.39 "Hg10 mi
7:56 AM7 °FClear.8 mph50%29.37 "Hg10 mi
6:56 AM9 °FClear.13 mph45%29.36 "Hg10 mi
5:56 AM9 °FClear.13 mph47%29.35 "Hg10 mi
4:56 AM9 °FClear.9 mph45%29.34 "Hg10 mi
3:56 AM8 °FClear.6 mph52%29.34 "Hg10 mi
2:56 AM10 °FClear.12 mph50%29.33 "Hg10 mi
1:56 AM11 °FClear.7 mph46%29.32 "Hg10 mi
12:56 AM12 °FClear.9 mph48%29.31 "Hg10 mi
11:56 PM
Nov 21
11 °FClear.14 mph53%29.31 "Hg10 mi
10:56 PM11 °FClear.9 mph53%29.30 "Hg10 mi
Weather by CustomWeather, © 2014

See weather overviewHow to use our weather pages